KB3UMW-13 Weather Reports


Display with metric or nautical units.
time (UTC)temp
F
wind
direction
speed
MPH
gust
MPH
rain 1hr
in
rain 24hr
in
rain mn
in
humidity
%
barometer
mb
20260507220620 53 154 3.0 3.0 0.00 0.03 0.03 60 1010.3
20260507220118 53 128 2.0 4.0 0.00 0.03 0.03 59 1010.1
20260507215613 53 58 1.0 4.0 0.00 0.03 0.03 56 1010.0
20260507215112 54 134 5.0 6.0 0.00 0.03 0.03 58 1010.0
20260507214609 54 6 0.0 5.0 0.00 0.03 0.03 54 1009.9
20260507214104 54 33 2.0 4.0 0.00 0.03 0.03 54 1010.0
20260507213601 53 151 2.0 4.0 0.00 0.03 0.03 56 1009.9
20260507213058 54 53 3.0 9.0 0.00 0.03 0.03 51 1010.0
20260507212554 54 122 0.0 4.0 0.00 0.03 0.03 55 1009.9
20260507212051 54 124 2.0 6.0 0.00 0.03 0.03 59 1009.8
20260507211548 54 136 3.0 7.0 0.00 0.03 0.03 58 1009.7
20260507211044 55 59 2.0 9.0 0.00 0.03 0.03 53 1009.7
20260507210541 55 115 2.0 8.0 0.00 0.03 0.03 49 1009.8
20260507210038 55 40 2.0 7.0 0.00 0.03 0.03 54 1010.1
20260507205535 57 82 1.0 9.0 0.00 0.03 0.03 52 1009.5
20260507205031 58 285 1.0 10.0 0.00 0.03 0.03 46 1009.7
20260507204527 59 122 3.0 11.0 0.00 0.03 0.03 51 1010.0
20260507204025 59 35 3.0 5.0 0.00 0.03 0.03 50 1009.8
20260507203523 58 163 4.0 7.0 0.00 0.03 0.03 54 1009.8
20260507203020 58 149 5.0 9.0 0.00 0.03 0.03 53 1009.9
20260507202515 59 55 3.0 5.0 0.00 0.03 0.03 54 1009.7
20260507202012 58 165 4.0 7.0 0.00 0.03 0.03 56 1009.8
20260507201508 58 60 1.0 11.0 0.00 0.03 0.03 48 1010.0
20260507201004 58 156 9.0 9.0 0.00 0.03 0.03 55 1009.9
20260507200459 60 348 2.0 6.0 0.00 0.03 0.03 46 1010.0
20260507195955 57 19 1.0 4.0 0.00 0.03 0.03 54 1010.1
20260507195453 58 142 2.0 4.0 0.00 0.03 0.03 61 1010.2
20260507194950 58 137 3.0 7.0 0.00 0.03 0.03 48 1010.3
20260507194447 60 245 1.0 5.0 0.00 0.03 0.03 52 1010.0
20260507193942 60 46 2.0 13.0 0.00 0.03 0.03 55 1009.9
20260507193440 61 113 3.0 11.0 0.00 0.03 0.03 44 1010.3
20260507192937 60 144 6.0 6.0 0.00 0.03 0.03 50 1010.2
20260507192432 60 154 3.0 5.0 0.00 0.03 0.03 57 1010.4
20260507191930 58 123 4.0 6.0 0.00 0.03 0.03 48 1010.3
20260507191426 59 150 3.0 6.0 0.00 0.03 0.03 49 1010.2
20260507190922 57 23 4.0 10.0 0.00 0.03 0.03 54 1010.3
20260507190420 60 16 2.0 4.0 0.00 0.03 0.03 51 1010.0
20260507185919 60 266 0.0 7.0 0.00 0.03 0.03 61 1010.3
20260507185416 60 159 3.0 9.0 0.00 0.03 0.03 55 1010.2
20260507184913 58 158 0.0 7.0 0.00 0.03 0.03 51 1010.1
20260507184410 58 71 6.0 15.0 0.00 0.03 0.03 50 1010.3
20260507183908 58 359 2.0 5.0 0.00 0.03 0.03 55 1010.5
20260507183405 57 102 3.0 4.0 0.00 0.03 0.03 55 1010.7
20260507182902 59 313 3.0 4.0 0.00 0.03 0.03 49 1010.6
20260507182357 59 146 3.0 5.0 0.00 0.03 0.03 57 1010.4
20260507181854 60 64 1.0 11.0 0.00 0.03 0.03 53 1010.3
20260507181350 60 342 3.0 5.0 0.00 0.03 0.03 59 1010.1
20260507180847 58 143 3.0 5.0 0.00 0.03 0.03 55 1010.2
20260507180344 60 150 4.0 9.0 0.00 0.03 0.03 51 1010.4
20260507175839 58 151 3.0 6.0 0.00 0.03 0.03 62 1010.4
20260507175337 56 313 0.0 4.0 0.00 0.03 0.03 56 1010.7
20260507174834 57 105 2.0 3.0 0.00 0.03 0.03 60 1010.6
20260507174331 55 108 1.0 6.0 0.00 0.03 0.03 58 1010.4
20260507173829 58 3 2.0 5.0 0.00 0.03 0.03 56 1010.7
20260507173326 58 20 1.0 5.0 0.00 0.03 0.03 55 1010.6
20260507172822 57 146 8.0 8.0 0.00 0.03 0.03 67 1010.6
20260507172319 57 328 2.0 11.0 0.00 0.03 0.03 55 1010.8
20260507171814 58 353 4.0 6.0 0.00 0.03 0.03 58 1010.7
20260507171312 58 143 4.0 7.0 0.00 0.03 0.03 60 1011.0
20260507170809 57 137 3.0 7.0 0.00 0.03 0.03 60 1011.0
20260507170305 57 152 3.0 10.0 0.00 0.03 0.03 61 1010.8
20260507165801 58 315 1.0 5.0 0.00 0.03 0.03 58 1011.0
20260507165257 58 167 3.0 5.0 0.00 0.03 0.03 62 1011.2
20260507164754 57 108 4.0 6.0 0.00 0.03 0.03 57 1011.0
20260507164251 57 0 2.0 6.0 0.00 0.03 0.03 60 1011.2
20260507163748 57 64 3.0 6.0 0.00 0.03 0.03 63 1011.4
20260507163246 57 338 1.0 3.0 0.00 0.03 0.03 59 1011.7
20260507162741 58 149 11.0 15.0 0.00 0.03 0.03 59 1011.3
20260507162237 57 0 2.0 8.0 0.00 0.03 0.03 55 1011.6
20260507161735 58 359 3.0 5.0 0.00 0.03 0.03 64 1011.7
20260507161231 57 3 3.0 5.0 0.00 0.03 0.03 63 1011.6
20260507160727 57 155 3.0 5.0 0.00 0.03 0.03 57 1011.7
20260507160223 55 87 1.0 7.0 0.00 0.03 0.03 59 1011.8
20260507155719 54 54 4.0 6.0 0.00 0.03 0.03 71 1011.7
20260507155216 57 78 4.0 5.0 0.00 0.03 0.03 63 1011.5
20260507154712 56 350 3.0 5.0 0.00 0.03 0.03 65 1011.7
20260507154210 56 354 4.0 5.0 0.00 0.03 0.03 66 1011.9
20260507153707 55 147 5.0 9.0 0.00 0.03 0.03 62 1011.7
20260507153203 57 143 2.0 7.0 0.00 0.03 0.03 57 1011.7
20260507152659 54 117 1.0 8.0 0.00 0.03 0.03 63 1011.9
20260507152155 54 138 2.0 8.0 0.00 0.03 0.03 66 1011.9
20260507151652 55 136 3.0 7.0 0.00 0.03 0.03 61 1011.8
20260507151148 55 177 2.0 5.0 0.00 0.03 0.03 66 1012.0
20260507150646 52 135 4.0 11.0 0.00 0.03 0.03 67 1012.3
20260507150142 53 143 8.0 12.0 0.00 0.03 0.03 66 1012.0
20260507145637 55 139 7.0 7.0 0.00 0.03 0.03 62 1011.9
20260507145135 53 133 1.0 5.0 0.00 0.03 0.03 70 1012.0
20260507144631 53 145 3.0 6.0 0.00 0.03 0.03 68 1012.1
20260507144130 54 166 2.0 9.0 0.00 0.03 0.03 66 1012.4
20260507143626 54 96 2.0 5.0 0.00 0.03 0.03 73 1012.3
20260507143123 54 145 1.0 3.0 0.00 0.03 0.03 78 1012.1
20260507142619 51 129 2.0 6.0 0.00 0.03 0.03 74 1012.6
20260507142116 53 207 3.0 7.0 0.00 0.03 0.03 74 1012.7
20260507141612 53 7 2.0 3.0 0.00 0.03 0.03 75 1012.6
20260507141109 50 155 3.0 5.0 0.00 0.03 0.03 74 1012.6
20260507140605 51 153 4.0 6.0 0.00 0.03 0.03 75 1012.7
20260507135600 50 109 0.0 3.0 0.00 0.03 0.03 79 1013.0
20260507135057 49 134 2.0 3.0 0.00 0.03 0.03 82 1012.9
20260507134553 47 331 2.0 6.0 0.00 0.03 0.03 83 1012.8
20260507134049 46 40 1.0 3.0 0.00 0.03 0.03 82 1012.9
20260507133546 46 23 0.0 5.0 0.00 0.03 0.03 77 1013.0
20260507133044 46 154 0.0 3.0 0.00 0.03 0.03 80 1012.9
20260507132540 46 72 1.0 5.0 0.00 0.03 0.03 79 1013.1
20260507132036 46 151 1.0 3.0 0.00 0.03 0.03 85 1013.0
20260507131533 45 138 0.0 4.0 0.00 0.03 0.03 85 1013.0
20260507131030 45 121 1.0 3.0 0.00 0.03 0.03 86 1012.8
20260507130527 45 151 2.0 5.0 0.00 0.03 0.03 86 1013.3
20260507130026 44 58 1.0 3.0 0.00 0.03 0.03 81 1013.3
20260507125524 45 116 1.0 3.0 0.00 0.03 0.03 87 1013.3
20260507125021 45 122 1.0 3.0 0.00 0.03 0.03 89 1013.0
20260507124517 45 101 0.0 4.0 0.00 0.03 0.03 90 1013.4
20260507124015 44 13 0.0 2.0 0.00 0.03 0.03 87 1013.3
20260507123513 44 105 1.0 3.0 0.00 0.03 0.03 84 1013.4
20260507123010 44 45 0.0 2.0 0.00 0.03 0.03 92 1013.2
20260507122504 43 328 0.0 2.0 0.00 0.03 0.03 94 1013.3
20260507122001 43 57 0.0 2.0 0.00 0.03 0.03 90 1013.3
20260507121456 43 137 2.0 3.0 0.00 0.03 0.03 95 1013.7
20260507120953 42 11 0.0 3.0 0.00 0.03 0.03 93 1013.2
20260507120449 42 30 0.0 2.0 0.00 0.03 0.03 95 1013.0
20260507115946 42 49 0.0 2.0 0.00 0.03 0.03 98 1013.1
20260507115442 41 102 0.0 2.0 0.00 0.03 0.03 99 1013.1
20260507114938 42 44 0.0 1.0 0.00 0.03 0.03 99 1013.2
20260507114434 41 89 0.0 2.0 0.00 0.03 0.03 99 1013.2
20260507113932 41 29 0.0 2.0 0.00 0.03 0.03 99 1012.8
20260507113429 41 27 1.0 2.0 0.00 0.03 0.03 99 1012.9
20260507112926 42 130 0.0 1.0 0.00 0.03 0.03 99 1012.9
20260507112424 42 55 0.0 2.0 0.00 0.03 0.03 99 1013.1
20260507111921 41 44 0.0 2.0 0.00 0.03 0.03 99 1013.1
20260507111418 41 38 0.0 1.0 0.00 0.03 0.03 99 1013.0
20260507110914 41 44 0.0 2.0 0.00 0.03 0.03 99 1012.9
20260507110410 41 38 0.0 2.0 0.00 0.03 0.03 99 1012.8
20260507105907 42 91 0.0 2.0 0.00 0.03 0.03 99 1012.7
20260507105403 41 22 0.0 1.0 0.00 0.03 0.03 99 1012.8
20260507104900 41 137 2.0 2.0 0.00 0.03 0.03 99 1012.7
20260507104357 41 93 1.0 2.0 0.00 0.03 0.03 99 1012.4
20260507103853 41 22 0.0 2.0 0.00 0.03 0.03 99 1012.6
20260507103350 41 113 1.0 2.0 0.00 0.03 0.03 99 1012.5
20260507102846 41 32 0.0 2.0 0.00 0.03 0.03 99 1012.4
20260507102343 41 35 1.0 2.0 0.00 0.03 0.03 99 1012.3
20260507101839 41 100 1.0 2.0 0.00 0.03 0.03 99 1012.3
20260507101333 42 52 0.0 1.0 0.00 0.03 0.03 99 1012.4
20260507100831 42 22 0.0 1.0 0.00 0.03 0.03 99 1012.3
20260507100329 42 27 0.0 2.0 0.00 0.03 0.03 99 1012.1
20260507095827 42 22 0.0 1.0 0.00 0.03 0.03 99 1012.3
20260507095323 42 52 0.0 2.0 0.00 0.03 0.03 99 1011.9
20260507094820 42 44 0.0 2.0 0.00 0.03 0.03 99 1011.9
20260507094316 42 92 1.0 2.0 0.00 0.03 0.03 99 1011.9
20260507093813 42 62 1.0 2.0 0.00 0.03 0.03 99 1011.9
20260507093312 42 97 1.0 2.0 0.00 0.03 0.03 99 1012.1
20260507092810 41 45 0.0 2.0 0.00 0.03 0.03 99 1012.1
20260507092307 41 55 0.0 1.0 0.00 0.03 0.03 99 1012.4
20260507091802 42 120 1.0 3.0 0.00 0.03 0.03 99 1012.1
20260507091259 42 87 1.0 2.0 0.00 0.03 0.03 99 1012.4
20260507090759 42 76 0.0 2.0 0.00 0.03 0.03 99 1012.4
20260507090256 41 119 0.0 3.0 0.00 0.03 0.03 99 1011.8
20260507085753 42 141 2.0 3.0 0.00 0.03 0.03 99 1011.9
20260507085250 42 119 0.0 2.0 0.00 0.03 0.03 99 1012.0
20260507084747 42 139 2.0 3.0 0.00 0.03 0.03 99 1012.0
20260507084243 42 65 0.0 2.0 0.00 0.03 0.03 99 1012.0
20260507083741 41 118 1.0 2.0 0.00 0.03 0.03 99 1011.9
20260507083237 41 135 0.0 2.0 0.00 0.03 0.03 99 1012.1
20260507082733 41 103 2.0 3.0 0.00 0.03 0.03 99 1012.3
20260507082229 42 51 1.0 2.0 0.02 0.03 0.03 99 1012.1
20260507081726 41 147 0.0 2.0 0.02 0.03 0.03 99 1012.3
20260507081222 42 353 1.0 4.0 0.02 0.02 0.02 99 1012.3
20260507080719 42 89 0.0 2.0 0.02 0.02 0.02 99 1012.0
20260507080215 43 140 0.0 3.0 0.05 0.02 0.02 99 1012.3
20260507075711 44 77 1.0 3.0 0.02 0.02 0.02 99 1012.0
20260507075208 44 322 2.0 3.0 0.02 0.01 0.01 99 1012.1
20260507074703 44 132 0.0 2.0 0.02 0.01 0.01 99 1011.9
20260507074202 44 35 2.0 2.0 0.00 0.01 0.01 99 1011.9
20260507073658 44 141 2.0 3.0 0.00 0.01 0.01 99 1011.7
20260507073154 44 128 2.0 3.0 0.00 0.01 0.01 99 1011.9
20260507072653 44 153 0.0 3.0 0.00 0.01 0.01 99 1011.9
20260507072150 44 154 0.0 2.0 0.00 0.01 0.01 99 1011.8
20260507071647 44 94 1.0 1.0 0.00 0.01 0.01 99 1011.9
20260507071143 44 116 0.0 2.0 0.00 0.01 0.01 99 1011.7
20260507070640 44 148 0.0 2.0 0.00 0.01 0.01 99 1012.0
20260507070137 44 49 0.0 1.0 0.00 0.01 0.01 99 1011.9
20260507065633 44 47 0.0 1.0 0.00 0.01 0.01 99 1011.9
20260507065130 44 76 0.0 1.0 0.00 0.01 0.01 99 1011.8
20260507064628 44 71 0.0 1.0 0.00 0.01 0.01 99 1011.9
20260507064127 44 134 2.0 2.0 0.00 0.01 0.01 99 1011.9
20260507063624 44 124 1.0 2.0 0.00 0.01 0.01 99 1012.1
20260507063121 44 55 0.0 1.0 0.00 0.01 0.01 99 1012.0
20260507062617 44 122 0.0 2.0 0.00 0.01 0.01 99 1012.1
20260507062115 44 124 1.0 3.0 0.02 0.01 0.01 99 1012.3
20260507061613 44 69 0.0 2.0 0.02 0.01 0.01 99 1012.4
20260507061111 44 132 2.0 3.0 0.00 0.00 0.00 99 1012.1
20260507060609 44 143 2.0 3.0 0.00 0.00 0.00 99 1012.3
20260507060105 44 141 3.0 3.0 0.00 0.00 0.00 99 1012.3
20260507055600 44 19 0.0 1.0 0.00 0.00 0.00 99 1012.5
20260507055056 44 138 1.0 2.0 0.00 0.00 0.00 99 1012.3
20260507054552 44 32 0.0 2.0 0.00 0.00 0.00 99 1012.4
20260507054049 44 138 2.0 3.0 0.00 0.00 0.00 99 1012.5
20260507053547 44 130 1.0 3.0 0.00 0.00 0.00 99 1012.5
20260507053046 44 102 0.0 2.0 0.00 0.00 0.00 99 1012.7
20260507052543 44 130 2.0 2.0 0.00 0.00 0.00 99 1012.5
20260507052040 44 130 4.0 4.0 0.00 0.00 0.00 99 1012.6
20260507051537 44 25 0.0 1.0 0.00 0.00 0.00 99 1012.6
20260507051034 44 128 1.0 2.0 0.00 0.00 0.00 99 1012.8
20260507050530 44 156 0.0 2.0 0.00 0.00 0.00 99 1012.9
20260507050027 44 135 1.0 3.0 0.00 0.00 0.00 99 1012.8
20260507045524 44 38 0.0 3.0 0.00 0.00 0.00 99 1012.9
20260507045021 44 46 0.0 2.0 0.00 0.00 0.00 99 1012.8
20260507044518 44 40 0.0 2.0 0.00 0.00 0.00 99 1012.4
20260507044014 44 89 0.0 2.0 0.00 0.00 0.00 99 1012.6
20260507043511 44 107 0.0 3.0 0.00 0.00 0.00 99 1012.7
20260507043008 44 7 1.0 4.0 0.00 0.00 0.00 99 1012.7
20260507042504 44 68 1.0 3.0 0.00 0.00 0.00 99 1012.8
20260507041959 44 12 0.0 3.0 0.00 0.00 0.00 99 1012.5
20260507041457 44 127 1.0 2.0 0.02 0.00 0.00 99 1012.5
20260507040953 44 124 2.0 2.0 0.02 0.00 0.00 99 1012.5
20260507040449 44 77 1.0 3.0 0.00 0.00 0.00 99 1012.6
20260507035945 44 46 2.0 3.0 0.02 0.52 0.52 99 1012.8
20260507035442 45 124 0.0 2.0 0.02 0.52 0.52 99 1012.6
20260507034939 45 83 0.0 2.0 0.05 0.52 0.52 99 1012.5
20260507034436 45 17 0.0 2.0 0.05 0.52 0.52 99 1012.7
20260507033934 45 104 3.0 3.0 0.05 0.51 0.51 99 1012.6
20260507033431 45 129 0.0 6.0 0.02 0.51 0.51 99 1012.7
20260507032928 46 57 0.0 3.0 0.00 0.50 0.50 99 1012.7
20260507032425 46 9 0.0 2.0 0.00 0.50 0.50 99 1012.6
20260507031921 46 22 0.0 2.0 0.02 0.50 0.50 99 1012.7
20260507031418 46 27 0.0 2.0 0.00 0.50 0.50 99 1013.1
20260507030914 46 58 1.0 2.0 0.02 0.50 0.50 99 1013.1
20260507030412 46 44 0.0 2.0 0.02 0.50 0.50 99 1012.9
20260507025909 46 22 0.0 3.0 0.02 0.50 0.50 99 1012.8
20260507025406 46 144 0.0 2.0 0.05 0.50 0.50 99 1012.0
20260507024904 46 143 1.0 2.0 0.05 0.49 0.49 99 1012.1
20260507024401 46 31 3.0 3.0 0.02 0.49 0.49 99 1012.6
20260507023857 46 120 1.0 2.0 0.00 0.48 0.48 99 1012.8
20260507023353 46 44 0.0 2.0 0.02 0.48 0.48 99 1013.1
20260507022851 46 76 2.0 3.0 0.00 0.48 0.48 99 1012.3
20260507022347 46 134 2.0 3.0 0.02 0.48 0.48 99 1012.6
20260507021843 47 108 0.0 4.0 0.02 0.48 0.48 99 1012.6
20260507021339 47 354 0.0 3.0 0.00 0.48 0.48 99 1012.5
20260507020837 47 136 3.0 4.0 0.02 0.48 0.48 99 1012.3
20260507020333 47 114 2.0 4.0 0.02 0.48 0.48 99 1012.1
20260507015830 47 117 1.0 3.0 0.00 0.47 0.47 99 1012.4
20260507015328 47 23 2.0 5.0 0.02 0.47 0.47 99 1012.0
20260507014825 48 57 0.0 2.0 0.00 0.47 0.47 99 1011.8
20260507014321 48 122 1.0 3.0 0.00 0.47 0.47 99 1012.0
20260507013818 48 62 0.0 2.0 0.00 0.47 0.47 99 1011.9
20260507013315 48 89 0.0 2.0 0.00 0.47 0.47 99 1012.1
20260507012813 48 299 0.0 4.0 0.00 0.47 0.47 99 1012.0
20260507012308 48 50 0.0 2.0 0.00 0.47 0.47 99 1012.1
20260507011806 48 96 1.0 4.0 0.00 0.47 0.47 99 1011.8
20260507011302 48 332 2.0 3.0 0.00 0.47 0.47 99 1011.9
20260507010801 48 120 2.0 5.0 0.00 0.47 0.47 99 1011.8
20260507010258 48 132 4.0 5.0 0.00 0.47 0.47 99 1011.6
20260507005755 48 326 0.0 3.0 0.00 0.47 0.47 99 1011.9
20260507005252 48 52 0.0 2.0 0.00 0.47 0.47 99 1011.6
20260507004748 48 44 0.0 3.0 0.00 0.47 0.47 99 1011.5
20260507004246 48 105 2.0 4.0 0.00 0.47 0.47 99 1011.8
20260507003742 48 144 1.0 3.0 0.00 0.47 0.47 99 1011.6
20260507003237 49 119 0.0 4.0 0.00 0.47 0.47 99 1011.3
20260507002734 48 62 1.0 2.0 0.00 0.47 0.47 99 1010.8
20260507002230 49 137 3.0 4.0 0.00 0.47 0.47 99 1011.4
20260507001727 48 57 0.0 4.0 0.00 0.47 0.47 99 1011.7
20260507001224 49 38 0.0 3.0 0.00 0.47 0.47 99 1011.8
20260507000720 49 112 3.0 3.0 0.00 0.47 0.47 99 1011.9
20260507000216 49 57 0.0 3.0 0.00 0.47 0.47 99 1012.3
20260506235713 49 57 2.0 4.0 0.00 0.47 0.47 99 1011.9
20260506235208 49 128 3.0 4.0 0.00 0.47 0.47 99 1011.8
20260506234706 49 84 1.0 4.0 0.00 0.47 0.47 99 1011.7
20260506234203 49 58 2.0 3.0 0.00 0.47 0.47 99 1011.5
20260506233700 49 319 0.0 3.0 0.00 0.47 0.47 99 1011.5
20260506233157 49 55 0.0 6.0 0.00 0.47 0.47 99 1011.7
20260506232653 50 66 2.0 2.0 0.00 0.47 0.47 99 1011.6
20260506232148 50 148 1.0 3.0 0.00 0.47 0.47 99 1011.8
20260506231646 50 17 1.0 5.0 0.00 0.47 0.47 99 1011.4
20260506231144 50 12 1.0 3.0 0.00 0.47 0.47 99 1011.6
20260506230641 50 112 0.0 5.0 0.00 0.47 0.47 99 1011.5
20260506230138 50 150 3.0 4.0 0.00 0.47 0.47 99 1011.2
20260506225634 50 132 2.0 4.0 0.00 0.47 0.47 99 1011.5
20260506225131 51 127 1.0 3.0 0.00 0.47 0.47 99 1011.2
20260506224627 51 138 3.0 5.0 0.00 0.47 0.47 99 1011.3
20260506224124 51 136 0.0 4.0 0.00 0.47 0.47 99 1011.2
20260506223620 51 75 0.0 3.0 0.00 0.47 0.47 99 1011.2
20260506223116 51 140 2.0 3.0 0.00 0.47 0.47 99 1011.1
20260506222614 51 128 2.0 5.0 0.02 0.47 0.47 99 1011.3
20260506222110 50 102 1.0 6.0 0.02 0.47 0.47 99 1010.8
20260506221608 51 22 1.0 8.0 0.00 0.47 0.47 99 1011.1
20260506221100 51 48 1.0 3.0 0.00 0.47 0.47 99 1011.3